Fargo, ND

5:01 PM CDT on March 26, 2017 (GMT -0500)
Hector International

Weather History for KFAR - February, 2013

Change the Weather History Date:

Tuesday, February 26, 2013

  Actual Average Record
Temperature  
Mean Temperature 20 °F 19 °F  
Max Temperature 25 °F 27 °F 59 °F (1896)
Min Temperature 15 °F 11 °F -30 °F (1897)
Degree Days  
Heating Degree Days 45 46  
Month to date heating degree days 1368 1320  
Since 1 July heating degree days 6501 6588  
Cooling Degree Days 0 0  
Month to date cooling degree days 0 0  
Year to date cooling degree days 0 0  
Moisture  
Dew Point 17 °F    
Average Humidity 90    
Maximum Humidity 100    
Minimum Humidity 80    
Precipitation  
Precipitation 0.00 in 0.03 in 0.66 in (1936)
Month to date precipitation 1.22 0.55  
Year to date precipitation 2.19 1.25  
Snow  
Snow 0.00 in 0.30 in 7.40 in (1936)
Month to date snowfall 14.4 6.4  
Since 1 July snowfall 37.1 37.4  
Snow Depth 12.00 in    
Sea Level Pressure  
Sea Level Pressure 30.07 in    
Wind  
Wind Speed 5 mph (South)    
Max Wind Speed 16 mph    
Max Gust Speed 20 mph    
Visibility 2 miles    
Events Fog , Snow    
T = Trace of Precipitation, MM = Missing Value Source: NWS Daily Summary

Daily Weather History Graph

Daily Weather History Graph

Search for Another Location

Airport or City:

Trip Planner

Search our weather history database for the weather conditions in past years. The results will help you decide how hot, cold, wet, or windy it might be!

Date:

Astronomy

Feb. 26, 2013 Rise Set
Actual Time 7:12 AM CST 6:08 PM CST
Civil Twilight 6:41 AM CST 6:39 PM CST
Nautical Twilight 6:06 AM CST 7:14 PM CST
Astronomical Twilight 5:31 AM CST 7:49 PM CST
Moon 7:35 PM CST 7:08 AM CST
Length of Visible Light 11h 58m
Length of Day
10h 56m
Full, 99% of the Moon is Illuminated
Feb 26
Full
Mar 4
Last Quarter
Mar 11
New
Mar 19
First Quarter
Mar 27
Full

Hourly Weather History & Observations

Time (CST) Temp. Windchill Dew Point Humidity Pressure Visibility Wind Dir Wind Speed Gust Speed Precip Events Conditions
12:53 AM 21.0 °F 9.3 °F 18.0 °F 88% 30.07 in 0.8 mi South 11.5 mph - N/A   Mist
1:53 AM 21.0 °F 8.6 °F 18.0 °F 88% 30.07 in 0.8 mi South 12.7 mph - N/A   Overcast
2:31 AM 19.4 °F 8.6 °F 17.6 °F 93% 30.01 in 1.8 mi South 9.2 mph - N/A   Overcast
2:53 AM 19.9 °F 6.7 °F 16.0 °F 85% 30.06 in 1.0 mi South 13.8 mph 18.4 mph N/A   Overcast
3:01 AM 19.4 °F 7.9 °F 17.6 °F 93% 30.02 in 0.8 mi South 10.4 mph - N/A   Overcast
3:53 AM 19.9 °F 7.9 °F 17.1 °F 89% 30.06 in 0.5 mi SSE 11.5 mph - N/A Fog Light Freezing Fog
4:53 AM 19.9 °F 8.6 °F 17.1 °F 89% 30.08 in 0.8 mi SSE 10.4 mph - N/A   Overcast
5:00 AM 19.4 °F 7.2 °F 15.8 °F 86% 30.03 in 1.0 mi South 11.5 mph - N/A   Overcast
5:25 AM 19.4 °F 8.6 °F 15.8 °F 86% 30.02 in 0.8 mi SSE 9.2 mph - N/A   Overcast
5:53 AM 19.0 °F 8.2 °F 16.0 °F 88% 30.07 in 0.8 mi South 9.2 mph - N/A   Mist
6:25 AM 19.4 °F 12.8 °F 15.8 °F 86% 30.01 in 1.0 mi SSE 4.6 mph - N/A   Mist
6:33 AM 19.4 °F 12.8 °F 15.8 °F 86% 30.01 in 0.8 mi SSE 4.6 mph - N/A   Mist
6:53 AM 19.0 °F 8.2 °F 15.1 °F 85% 30.08 in 0.5 mi South 9.2 mph - N/A Fog Light Freezing Fog
7:33 AM 19.4 °F 9.5 °F 15.8 °F 86% 30.02 in 0.2 mi South 8.1 mph - 0.00 in Fog , Snow Light Snow
7:53 AM 19.0 °F 12.3 °F 15.1 °F 85% 30.07 in 0.5 mi SSE 4.6 mph - 0.01 in Fog , Snow Light Snow
8:16 AM 19.4 °F 10.4 °F 15.8 °F 86% 30.03 in 0.5 mi SSE 6.9 mph - 0.00 in Fog Light Freezing Fog
8:53 AM 19.0 °F 11.1 °F 16.0 °F 88% 30.07 in 0.5 mi South 5.8 mph - 0.00 in Fog Light Freezing Fog
9:18 AM 19.4 °F 10.4 °F 15.8 °F 86% 30.03 in 1.0 mi SE 6.9 mph - N/A   Overcast
9:27 AM 19.4 °F 12.8 °F 15.8 °F 86% 30.03 in 0.8 mi South 4.6 mph - N/A   Overcast
9:36 AM 19.4 °F 11.5 °F 15.8 °F 86% 30.03 in 1.2 mi South 5.8 mph - N/A   Overcast
9:53 AM 19.9 °F - 17.1 °F 89% 30.09 in 1.0 mi Calm Calm - N/A   Overcast
10:15 AM 19.4 °F 10.4 °F 15.8 °F 86% 30.04 in 0.5 mi SSW 6.9 mph - 0.00 in Fog , Snow Light Snow
10:43 AM 19.4 °F 10.4 °F 17.6 °F 93% 30.04 in 1.8 mi South 6.9 mph - 0.00 in   Overcast
10:53 AM 19.9 °F 13.4 °F 17.1 °F 89% 30.10 in 2.0 mi SSW 4.6 mph - 0.00 in   Overcast
11:00 AM 21.2 °F 13.6 °F 17.6 °F 86% 30.05 in 1.8 mi SSW 5.8 mph - N/A   Overcast
11:11 AM 21.2 °F 13.6 °F 19.4 °F 93% 30.05 in 0.8 mi South 5.8 mph - 0.00 in Snow Light Snow
11:19 AM 21.2 °F 16.4 °F 17.6 °F 86% 30.05 in 2.5 mi South 3.5 mph - 0.00 in   Overcast
11:25 AM 21.2 °F - 19.4 °F 93% 30.05 in 5.0 mi Calm Calm - 0.00 in   Overcast
11:53 AM 21.9 °F 17.2 °F 21.0 °F 96% 30.10 in 4.0 mi South 3.5 mph - 0.00 in   Overcast
12:26 PM 23.0 °F - 21.2 °F 93% 30.05 in 2.0 mi Calm Calm - N/A   Overcast
12:40 PM 23.0 °F 18.4 °F 19.4 °F 86% 30.05 in 5.0 mi SSW 3.5 mph - N/A   Overcast
12:53 PM 23.0 °F 15.8 °F 19.9 °F 88% 30.10 in 5.0 mi SSW 5.8 mph - N/A   Overcast
1:34 PM 23.0 °F 17.0 °F 19.4 °F 86% 30.04 in 1.8 mi South 4.6 mph - N/A   Overcast
1:40 PM 23.0 °F - 19.4 °F 86% 30.04 in 3.0 mi Calm Calm - N/A   Overcast
1:53 PM 23.0 °F - 19.9 °F 88% 30.09 in 5.0 mi Calm Calm - N/A   Overcast
2:53 PM 24.1 °F - 19.0 °F 81% 30.08 in 5.0 mi Calm Calm - N/A   Haze
3:53 PM 23.0 °F - 18.0 °F 81% 30.09 in 6.0 mi Calm Calm - N/A   Haze
4:53 PM 21.9 °F 14.5 °F 18.0 °F 85% 30.09 in 5.0 mi NW 5.8 mph - N/A   Overcast
5:17 PM 21.2 °F 16.4 °F 17.6 °F 86% 30.04 in 4.0 mi NW 3.5 mph - N/A   Overcast
5:53 PM 21.0 °F - 18.0 °F 88% 30.10 in 2.5 mi Calm Calm - N/A   Overcast
6:22 PM 21.2 °F - 17.6 °F 86% 30.05 in 1.8 mi Calm Calm - N/A   Overcast
6:53 PM 19.9 °F - 17.1 °F 89% 30.11 in 1.0 mi Calm Calm - N/A   Overcast
7:04 PM 19.4 °F 12.8 °F 17.6 °F 93% 30.06 in 0.8 mi NW 4.6 mph - N/A   Mist
7:25 PM 19.4 °F 12.8 °F 17.6 °F 93% 30.07 in 1.2 mi NW 4.6 mph - N/A   Overcast
7:35 PM 19.4 °F 11.5 °F 17.6 °F 93% 30.07 in 0.8 mi NNW 5.8 mph - N/A   Mist
7:53 PM 19.9 °F 12.1 °F 17.1 °F 89% 30.12 in 0.2 mi North 5.8 mph - N/A Fog Light Freezing Fog
8:53 PM 19.0 °F 12.3 °F 16.0 °F 88% 30.12 in 0.2 mi North 4.6 mph - N/A Fog Light Freezing Fog
9:53 PM 18.0 °F 8.7 °F 14.0 °F 84% 30.12 in 0.2 mi NNW 6.9 mph - N/A Fog Light Freezing Fog
10:53 PM 17.1 °F 8.7 °F 12.9 °F 84% 30.13 in 0.2 mi NNW 5.8 mph - N/A Fog Light Freezing Fog
11:53 PM 15.1 °F 9.4 °F 12.0 °F 88% 30.13 in 0.2 mi NNW 3.5 mph - N/A Fog Light Freezing Fog